Theta_e
301 300 300 300 299 299 299 298 298 297 297 297 297 297 296 296 295 295 294 294 294 293 293 293 293 292 292 292 292 291 291 291 290 290 289 289 288 288 288 287 287 287
300 299 299 299 298 298 298 297 297 297 297 297 296 296 296 295 295 295 294 294 293 293 293 292 292 292 292 292 291 291 291 290 290 289 289 288 288 288 287 287 287 287
299 299 298 298 298 298 297 297 297 297 297 296 296 296 296 295 295 294 294 293 293 293 292 292 292 292 292 291 291 291 290 290 289 289 288 288 287 287 287 287 287 286
298 298 298 298 297 297 297 297 297 297 296 296 296 296 295 295 295 294 294 293 293 292 292 292 292 292 292 291 291 290 290 289 289 288 288 287 287 287 287 286 286 286
298 298 297 297 297 297 297 297 297 297 297 296 296 296 295 295 295 294 294 293 293 292 292 292 292 292 291 291 291 290 290 289 288 288 287 287 287 287 286 286 286 286
297 297 297 297 296 296 297 297 297 297 297 296 296 296 295 295 295 294 294 293 293 292 292 292 292 292 292 291 291 290 289 288 288 287 287 287 287 286 286 286 286 286
297 297 297 296 296 296 296 297 297 297 296 296 296 295 295 295 295 294 294 293 293 293 292 292 292 292 292 291 290 290 289 288 288 287 287 287 286 286 286 286 286 286
297 297 296 296 296 296 296 296 296 296 296 296 296 295 295 295 295 294 294 293 293 293 292 292 292 292 292 291 290 289 288 288 288 287 287 287 287 286 286 286 286 285
297 297 296 296 296 296 296 296 296 296 296 296 296 295 295 295 294 294 294 293 293 293 292 292 293 292 292 290 289 289 288 288 287 287 287 287 287 286 286 286 286 286
297 297 296 296 296 296 296 296 296 296 296 296 295 295 295 294 294 294 293 293 293 293 292 293 293 292 291 290 289 288 288 288 287 287 287 287 287 287 286 286 286 286
297 296 296 296 296 296 296 296 296 296 295 295 295 295 294 294 294 294 293 293 293 292 292 293 293 292 291 290 289 288 288 288 287 287 287 287 287 287 286 286 286 286
297 296 296 296 296 296 296 295 295 295 295 295 295 295 294 294 293 293 293 292 292 292 292 293 292 291 290 290 289 288 288 287 287 287 287 287 287 287 287 286 286 286
297 296 296 296 296 296 295 295 295 295 295 295 295 294 294 293 293 293 292 292 292 292 292 292 291 291 290 289 288 288 288 287 287 287 287 287 287 287 287 287 286 286
297 296 295 295 295 295 295 295 295 295 294 294 294 294 293 293 293 292 292 292 291 291 292 292 291 290 290 289 288 288 288 287 287 287 287 287 287 287 287 287 287 286
296 295 295 295 295 295 294 294 294 294 294 294 293 293 293 292 292 291 291 291 291 291 291 291 291 290 289 289 288 288 288 287 287 287 287 287 287 287 287 287 286 286
296 295 295 295 294 294 294 294 294 293 293 293 293 293 292 292 292 291 291 291 291 291 291 291 291 290 289 288 288 288 288 288 287 287 287 287 287 287 287 287 287 286
296 295 295 294 294 294 293 293 293 293 293 292 292 292 292 292 291 291 291 291 291 291 291 291 290 290 289 289 289 288 288 288 288 288 287 287 287 287 287 287 286 286
296 295 295 294 294 293 293 293 293 292 292 292 292 292 292 291 291 291 291 290 291 291 291 290 290 289 289 289 289 289 288 288 288 288 288 288 287 287 287 287 286 286
296 295 295 294 293 293 293 292 292 292 292 291 291 291 291 291 291 290 290 290 291 291 290 290 290 289 289 289 289 289 288 288 288 288 288 288 287 287 286 286 286 286
296 295 294 293 293 292 292 292 292 292 291 291 291 291 291 290 290 290 290 290 291 291 290 290 290 289 289 289 289 289 288 288 288 288 288 288 287 287 286 286 286 285
296 295 294 293 292 292 292 292 291 291 291 290 290 290 290 290 290 290 290 290 291 291 291 290 289 289 289 289 289 289 288 288 288 288 288 287 287 287 287 286 286 285
296 295 294 293 292 292 292 291 291 291 290 290 290 290 290 289 289 290 290 290 290 291 291 290 289 289 289 288 288 288 288 288 288 288 288 287 287 287 287 287 286 286
296 295 294 293 292 292 291 291 291 291 290 290 290 290 289 289 289 289 289 289 290 290 290 290 289 289 289 288 288 288 288 288 288 288 288 287 287 287 287 287 286 286
296 295 294 293 292 292 291 291 291 291 290 290 290 289 289 289 289 289 289 289 289 290 289 289 289 289 288 288 288 288 288 288 288 288 288 287 287 287 287 287 287 286
295 295 294 293 292 292 292 291 291 290 290 290 289 289 289 289 289 289 289 289 289 289 289 289 289 289 288 288 288 288 287 288 288 287 287 288 287 287 287 287 287 286
295 295 294 293 293 292 292 291 291 290 290 289 289 289 289 289 288 288 288 289 289 289 289 289 289 288 288 288 287 287 287 287 287 287 287 288 287 287 287 287 287 286
Wind_Speed
31 28 26 25 24 22 21 20 19 17 16 15 13 12 11 10 9 8 6 5 4 3 3 2 2 2 3 3 4 4 5 5 6 5 5 5 5 5 5 5 6 6
31 29 27 26 25 23 21 20 19 18 17 15 14 12 11 10 9 8 7 5 5 4 3 2 2 2 2 3 3 4 5 5 5 4 4 4 4 4 4 5 5 6
32 30 28 27 26 25 23 22 20 18 17 16 15 13 12 11 10 8 8 7 6 5 4 3 2 1 1 2 3 4 5 5 4 4 4 4 4 4 4 4 5 6
33 31 29 27 26 25 24 23 22 20 18 17 16 14 13 12 10 9 9 8 7 6 5 3 2 1 1 2 3 4 5 4 4 4 4 4 4 4 4 5 5 6
34 32 30 29 28 26 25 23 22 21 19 18 17 15 14 12 11 10 9 8 8 7 5 4 2 1 1 2 4 4 5 4 4 4 4 4 4 4 5 5 6 7
35 33 31 30 29 27 25 24 22 21 20 19 17 16 15 14 12 11 10 10 9 8 6 5 3 2 2 3 4 4 4 4 4 4 5 4 4 5 6 6 7 8
36 35 33 32 30 28 26 25 23 22 21 20 18 17 16 15 14 13 12 11 10 8 7 5 4 2 3 3 4 4 5 5 5 5 5 5 5 6 7 7 8 9
37 36 35 33 31 30 28 27 25 24 23 21 20 19 17 16 15 15 14 12 11 9 7 6 4 4 4 4 5 5 5 5 6 6 6 6 6 7 8 8 9 10
38 37 36 35 33 32 31 29 27 26 24 23 21 20 19 18 17 16 15 13 11 10 8 7 5 5 5 5 6 6 6 7 7 7 8 8 7 8 9 9 10 11
39 38 37 36 35 34 32 31 29 27 26 24 23 22 21 21 20 19 17 15 13 11 10 8 8 7 7 6 7 7 7 8 8 8 9 9 9 9 10 10 11 12
41 40 39 38 37 36 34 32 31 29 27 26 25 24 23 23 22 20 18 16 14 12 10 10 10 9 8 8 8 8 8 9 9 10 10 10 10 10 10 11 12 13
43 42 41 40 38 37 35 34 32 30 29 28 27 26 26 25 23 21 19 17 15 14 13 13 13 11 10 10 9 9 10 10 10 11 11 11 10 11 11 12 13 13
44 43 42 40 39 37 36 35 33 32 30 29 29 28 27 26 24 22 20 18 17 16 15 15 15 13 12 11 10 10 11 11 11 12 11 11 11 12 12 13 14 14
44 43 42 40 39 38 37 36 34 33 32 31 30 30 28 26 24 23 21 20 19 18 18 17 16 15 14 13 11 11 12 12 12 12 12 12 12 13 13 14 15 15
45 44 42 41 40 39 38 38 36 35 34 33 32 31 29 27 25 24 23 22 21 20 20 19 18 17 16 14 12 12 13 13 13 13 13 13 13 13 14 15 16 16
45 44 42 42 41 41 40 39 38 37 36 35 34 32 30 29 27 26 25 24 23 22 22 21 20 19 17 15 13 13 13 14 13 14 14 13 13 13 14 15 16 17
45 44 43 43 43 42 41 40 39 39 38 37 35 33 32 31 29 29 27 26 25 24 24 23 21 20 18 16 15 14 14 14 14 14 15 14 13 13 14 15 16 18
45 45 44 44 44 43 42 42 41 41 39 38 37 35 34 32 31 30 29 27 26 25 25 24 22 21 20 18 17 16 15 15 14 15 15 14 13 13 14 15 17 18
46 46 46 46 45 44 43 43 42 42 41 40 39 37 35 34 33 32 30 28 27 26 25 24 24 23 22 20 18 18 17 16 15 16 16 15 14 13 14 15 17 19
47 47 47 47 46 44 44 44 44 44 43 41 40 38 37 36 35 33 31 29 27 27 26 26 26 25 24 22 21 20 19 17 16 17 17 16 14 13 14 15 17 18
48 48 48 47 46 46 46 46 46 45 44 42 41 40 39 37 35 34 32 30 29 28 28 29 28 27 26 24 23 22 21 19 18 18 18 17 15 14 14 15 16 18
49 49 48 48 47 47 47 47 47 46 45 44 43 41 40 38 37 35 34 32 31 30 30 31 30 29 28 27 25 24 22 22 21 20 20 19 17 16 15 15 16 17
49 50 49 48 48 48 48 48 47 46 46 45 44 43 41 40 39 38 36 35 33 32 33 32 31 31 31 29 27 26 25 24 23 23 23 21 19 18 17 17 17 18
49 49 48 48 48 48 48 48 47 47 47 46 46 44 43 42 41 39 38 37 36 35 35 34 33 33 33 31 29 28 27 27 26 25 25 24 23 22 20 19 19 19
43 45 46 47 47 47 47 47 47 47 47 47 46 45 44 43 42 41 41 40 39 38 37 36 35 35 34 33 32 30 30 29 29 28 28 27 26 25 24 22 22 22
37 39 40 42 43 43 43 44 45 46 47 47 47 47 45 45 44 43 43 42 41 41 40 39 38 37 36 36 35 33 32 32 32 32 31 30 29 29 27 26 26 26
Wind_Direction
189 190 189 185 184 184 182 178 179 180 179 177 176 177 174 174 175 169 167 167 161 161 154 133 97 67 40 33 23 10 7 5 4 1 356 354 350 348 345 339 339 336
190 190 189 187 185 184 183 181 183 183 182 180 180 181 179 179 179 172 172 175 171 171 163 141 105 75 37 22 12 3 2 360 357 354 351 350 344 341 339 331 331 327
191 191 191 190 188 186 184 183 185 185 186 185 183 184 184 182 183 179 177 177 177 180 173 156 129 87 32 8 1 355 354 352 350 345 340 338 334 332 329 321 320 318
191 192 192 191 190 190 189 188 188 188 189 190 187 186 186 186 186 184 181 182 183 186 183 168 152 114 11 350 348 346 343 341 337 329 326 325 318 319 319 311 308 309
191 193 193 193 192 193 194 193 194 193 191 192 191 189 189 190 190 186 186 189 188 189 187 176 168 185 318 329 335 333 328 325 318 308 310 312 305 304 305 301 301 302
192 194 194 194 194 195 197 197 198 198 196 195 194 192 192 193 192 191 191 194 194 192 190 185 189 214 289 316 320 316 307 301 297 293 296 296 293 291 292 293 293 292
194 195 196 196 196 197 199 200 199 200 198 197 195 196 198 197 196 196 196 198 197 195 195 197 209 242 284 297 298 291 282 281 281 281 283 283 282 282 282 282 284 284
197 197 197 197 198 199 200 201 201 201 199 199 199 200 201 201 202 202 201 202 200 201 203 207 226 260 274 278 277 269 265 267 268 269 274 274 272 273 273 274 278 282
199 199 199 199 200 201 202 203 203 203 202 202 202 204 205 205 206 206 206 205 204 206 209 216 239 255 259 265 264 258 256 257 259 262 264 267 268 269 270 273 277 283
201 202 202 202 203 204 205 205 205 205 204 204 205 207 209 209 209 209 209 209 210 211 215 227 242 247 249 255 253 250 250 250 255 259 260 264 268 269 272 274 277 282
203 204 205 205 205 206 207 207 207 208 207 207 209 210 212 213 213 213 213 212 213 216 224 237 244 243 244 247 245 244 246 248 253 257 260 264 267 270 273 276 277 282
205 206 207 207 208 208 209 209 210 210 210 211 212 214 215 215 216 218 217 216 217 221 230 239 242 241 241 242 242 243 246 249 252 256 260 264 268 272 274 276 278 281
208 209 209 209 210 210 211 212 212 213 213 214 216 216 217 218 219 220 220 220 222 226 233 239 240 241 240 239 240 245 248 251 254 258 263 266 270 274 275 278 279 280
211 211 211 211 212 213 213 214 215 215 216 217 218 219 220 221 222 223 223 224 225 229 236 241 241 242 240 237 241 247 250 252 255 259 264 268 272 275 277 279 280 281
214 213 213 214 214 215 215 216 217 218 218 219 220 221 222 222 222 223 224 226 229 232 238 242 243 243 240 239 244 249 251 253 257 261 265 269 271 275 278 280 282 283
216 216 216 217 217 217 218 219 219 220 221 221 222 222 223 224 223 222 223 227 230 235 241 243 244 244 241 240 245 251 254 255 258 262 266 268 271 275 278 281 283 284
218 219 219 220 220 220 220 221 221 222 223 223 223 224 225 225 224 223 225 228 231 237 243 244 244 245 243 242 247 252 254 256 260 265 267 269 272 275 279 283 285 286
221 222 222 223 223 222 223 223 224 224 225 225 225 226 227 227 226 226 227 229 232 238 242 242 244 246 244 244 249 253 255 256 261 267 268 270 271 274 281 285 287 287
224 225 225 226 225 225 225 225 226 227 227 227 228 229 229 229 228 227 227 229 235 240 242 243 245 246 245 245 250 255 256 257 262 268 270 270 272 277 284 287 288 288
227 228 228 228 228 227 227 228 229 229 229 230 230 230 231 230 229 229 229 232 237 242 244 245 246 246 245 246 251 255 258 259 262 266 268 269 271 277 284 288 289 288
230 231 231 230 230 229 230 231 231 231 231 232 232 233 233 233 232 233 233 234 239 245 246 245 245 246 246 247 251 255 258 261 263 265 265 266 268 273 281 287 289 290
234 234 233 232 232 232 232 233 233 234 234 234 235 235 235 234 234 235 235 236 241 246 247 245 246 246 247 248 251 253 255 260 265 266 264 263 264 268 275 282 286 290
238 237 236 235 235 234 235 236 236 237 237 237 237 236 236 236 237 237 237 238 241 245 246 246 248 248 248 249 251 252 254 259 264 266 264 263 263 265 269 276 282 285
242 241 241 240 239 239 239 240 240 240 241 241 240 240 240 240 241 240 240 240 242 244 245 247 250 250 248 249 251 252 254 258 262 263 263 263 263 264 266 271 276 280
248 248 247 246 245 246 245 245 245 244 245 244 244 244 243 243 243 243 243 243 244 245 245 247 249 249 247 248 251 251 254 258 260 261 262 264 265 265 266 268 272 276
253 253 253 252 252 252 251 251 250 249 249 248 248 247 245 245 245 245 246 246 247 248 247 247 249 248 246 248 251 251 254 258 260 261 263 266 266 265 265 267 270 273